This is the latest recevied weather packets stored in our database for station/object KD4EG. If no packets are shown the sender has not sent any weather packets the latest 10 day(s).
| Time | Temp. | Humidity | Pressure | Rain* | Wind** | Luminosity | Snow |
|---|---|---|---|---|---|---|---|
| 1788131940 | 28.89° C | 70% | 1022 hPa | 0 mm | - | 16 W/m² | - |
| 1788131635 | 29.44° C | 70% | 1021.8 hPa | 0 mm | - | 17 W/m² | - |
| 1788131334 | 28.89° C | 70% | 1021.8 hPa | 0 mm | - | 19 W/m² | - |
| 1788131030 | 28.89° C | 71% | 1022 hPa | 0 mm | - | 21 W/m² | - |
| 1788130729 | 28.89° C | 71% | 1021.8 hPa | 0 mm | - | 23 W/m² | - |
| 1788130424 | 28.89° C | 70% | 1022 hPa | 0 mm | - | 28 W/m² | - |
| 1788130119 | 29.44° C | 70% | 1021.9 hPa | 0 mm | - | 34 W/m² | - |
| 1788129820 | 29.44° C | 70% | 1021.9 hPa | 0 mm | - | 39 W/m² | - |
| 1788129510 | 29.44° C | 70% | 1021.8 hPa | 0 mm | - | 49 W/m² | - |
| 1788129206 | 29.44° C | 70% | 1021.9 hPa | 0 mm | - | 61 W/m² | - |
| 1788128905 | 29.44° C | 69% | 1021.8 hPa | 0 mm | - | 58 W/m² | - |
| 1788128600 | 29.44° C | 68% | 1021.8 hPa | 0 mm | - | 55 W/m² | - |
| 1788128296 | 29.44° C | 69% | 1021.9 hPa | 0 mm | - | 54 W/m² | - |
| 1788127993 | 29.44° C | 69% | 1022 hPa | 0 mm | - | 48 W/m² | - |
| 1788127693 | 29.44° C | 68% | 1021.9 hPa | 0 mm | - | 47 W/m² | - |
| 1788127392 | 29.44° C | 68% | 1021.7 hPa | 0 mm | - | 49 W/m² | - |
| 1788127090 | 30° C | 67% | 1021.9 hPa | 0 mm | - | 62 W/m² | - |
| 1788126785 | 30° C | 67% | 1021.7 hPa | 0 mm | - | 188 W/m² | - |
| 1788126480 | 30° C | 67% | 1021.8 hPa | 0 mm | - | 58 W/m² | - |
| 1788126175 | 30.56° C | 66% | 1021.6 hPa | 0 mm | - | 62 W/m² | - |
| 1788125874 | 31.11° C | 64% | 1021.7 hPa | 0 mm | - | 205 W/m² | - |
| 1788125569 | 31.11° C | 64% | 1021.5 hPa | 0 mm | - | 254 W/m² | - |
| 1788125265 | 31.67° C | 63% | 1021.8 hPa | 0 mm | - | 271 W/m² | - |
| 1788124961 | 31.11° C | 65% | 1021.7 hPa | 0 mm | - | 287 W/m² | - |
| 1788124660 | 31.11° C | 65% | 1021.9 hPa | 0 mm | - | 81 W/m² | - |
* Rain latest hour (hover to see other rain measurements)
** Current wind speed in m/s (hover to see current wind gust speed)